Theta_e
324 324 324 330 331 331 336 336 331 333 329 326 325 323 322 322 322 322 330 330 332 335 335 329 326 324 325 324 321 320 318 316 314 315 316 316 316 320 318 316 315 318 320 318 321 321 313 308 307
325 325 331 334 334 338 336 334 334 330 331 326 324 322 322 322 326 330 329 326 328 326 327 328 326 326 325 325 322 321 319 318 316 314 316 317 317 317 315 315 314 315 319 322 322 324 322 315 309
324 325 330 333 333 337 336 334 332 332 332 324 323 323 323 323 325 326 326 327 326 324 321 322 324 326 325 324 322 320 320 318 316 316 321 323 319 320 317 316 314 315 325 327 327 330 328 323 313
324 330 333 333 334 331 333 332 331 330 333 325 324 324 324 323 324 324 324 326 324 320 320 323 326 326 325 322 320 318 318 317 315 315 322 325 323 323 322 322 320 323 320 327 327 327 328 328 324
331 335 332 332 333 330 329 330 329 329 326 324 325 324 324 324 324 324 324 324 319 318 319 322 324 324 322 321 319 319 319 320 317 319 321 321 321 321 321 320 321 321 323 327 327 327 326 327 326
332 329 328 330 329 328 327 330 328 328 329 325 325 323 324 325 324 324 324 320 318 319 321 321 323 322 322 319 321 321 321 321 321 324 325 324 323 322 322 321 321 325 324 325 326 326 325 326 326
329 327 330 328 331 329 327 329 327 327 328 324 326 322 324 324 324 324 323 319 321 322 321 321 322 322 320 321 322 322 322 322 323 325 325 324 324 324 323 321 320 320 324 324 325 325 325 325 325
331 326 329 327 329 329 327 329 329 328 328 327 326 324 325 326 324 324 322 321 321 322 322 322 322 321 322 322 323 322 323 321 326 325 325 325 325 325 321 318 318 317 322 327 326 325 323 324 324
330 327 328 328 328 328 328 327 329 328 327 326 326 326 326 326 324 323 322 322 322 322 322 322 321 322 322 323 323 322 319 323 326 326 326 325 325 326 322 321 317 317 323 324 325 323 325 323 323
328 326 328 327 327 327 328 327 327 326 327 326 326 327 326 326 324 323 323 323 322 322 323 322 322 322 322 323 322 319 321 320 325 326 325 326 326 325 323 320 319 319 319 324 327 324 323 323 323
328 329 328 327 329 330 327 328 328 326 325 327 326 327 326 325 324 324 324 323 321 322 323 322 322 322 323 322 320 318 320 321 323 324 324 326 327 325 323 322 320 323 322 321 324 324 323 323 326
328 328 329 329 329 330 328 329 328 328 328 329 328 327 326 325 325 325 324 324 321 322 323 322 322 323 323 323 318 318 323 325 326 326 325 325 325 323 324 323 321 321 322 322 322 323 324 323 325
327 326 327 328 329 329 329 328 328 329 329 328 327 326 326 325 325 325 325 324 322 323 323 322 322 323 324 320 319 319 323 326 328 328 327 326 325 324 323 325 323 321 320 320 322 322 323 324 325
321 322 324 325 327 328 327 326 325 325 326 327 326 326 326 326 325 325 324 323 322 323 323 322 323 324 323 318 317 319 326 328 327 326 326 326 326 325 324 325 324 321 322 321 320 323 323 324 324
317 316 318 319 321 322 323 322 324 325 325 326 326 325 326 325 325 325 325 323 323 323 323 323 324 324 321 318 316 322 327 327 326 325 326 325 326 326 324 324 324 320 323 321 321 323 323 324 321
317 317 318 320 321 322 322 323 323 325 325 325 326 326 325 325 325 324 325 323 323 323 324 324 325 323 318 317 319 323 326 327 326 326 326 326 325 326 325 324 323 320 322 322 322 323 324 323 320
315 317 317 318 319 320 321 322 322 324 325 324 325 326 324 325 324 324 324 323 323 323 324 325 324 321 316 316 321 324 327 324 326 326 326 326 327 324 325 323 321 320 323 322 322 323 324 323 322
317 317 318 319 320 319 320 320 322 323 324 324 324 326 325 324 324 324 324 323 322 324 325 325 323 317 317 317 322 326 324 326 327 327 327 327 328 325 322 322 320 321 323 323 322 323 324 324 324
318 319 320 320 321 321 320 321 322 322 323 323 324 325 326 325 325 324 322 323 324 325 325 325 321 317 317 322 326 327 326 327 327 328 328 328 327 326 322 321 320 322 323 322 322 323 324 325 325
318 317 319 320 321 320 320 321 321 321 322 324 325 326 324 324 325 326 323 324 324 325 325 323 318 318 321 324 323 323 327 327 327 327 328 327 327 326 325 322 322 323 322 322 322 323 323 325 325
318 317 318 319 320 322 321 323 322 322 322 324 326 326 326 326 326 325 323 324 325 325 325 322 318 319 324 325 324 325 325 325 327 327 328 326 326 325 325 322 323 324 323 322 321 322 323 325 323
316 317 318 319 320 320 321 323 322 321 322 321 323 324 325 325 325 326 324 325 326 325 324 321 320 320 326 326 326 326 325 324 325 326 326 326 326 324 323 323 324 322 323 322 323 324 324 325 324
317 318 320 321 321 322 323 322 322 320 323 321 320 324 324 325 326 326 325 326 326 325 324 320 323 322 325 328 328 326 324 324 325 326 326 327 327 325 323 323 322 322 323 324 324 325 326 325 326
316 318 318 319 319 322 322 322 322 321 322 323 322 323 325 325 326 326 326 326 326 326 323 323 323 322 327 328 328 326 325 326 324 327 327 327 327 325 323 323 322 322 322 323 324 325 324 325 325
314 313 315 318 319 323 321 322 323 321 321 322 322 323 325 325 326 326 326 326 326 325 324 324 322 324 328 328 328 326 326 326 325 325 327 327 327 326 323 323 323 323 322 322 325 324 325 324 324
314 315 318 321 323 323 321 324 324 322 322 323 324 323 325 324 325 325 326 326 327 325 324 323 324 325 326 328 327 326 328 326 325 325 327 327 326 326 324 322 323 325 322 324 324 324 324 325 326
313 315 316 318 321 321 321 322 322 323 323 322 324 324 325 325 325 326 326 327 327 325 324 322 326 327 326 328 325 328 327 327 325 324 326 326 326 326 324 322 322 326 323 323 324 325 324 324 325
312 313 315 315 322 324 323 323 324 324 324 325 324 323 325 326 326 326 326 327 327 325 323 323 327 326 327 326 326 328 328 327 325 325 327 326 326 326 323 322 321 325 324 323 323 323 324 324 324
313 314 314 314 317 321 323 323 319 321 323 325 323 324 325 326 326 326 327 328 327 324 323 324 328 326 326 325 326 327 327 327 325 326 326 325 326 326 326 323 320 323 325 324 323 324 325 325 323
315 314 314 319 319 319 320 322 321 319 320 323 323 325 326 326 327 327 327 328 326 324 323 324 326 326 325 324 325 327 327 327 326 326 326 325 326 326 326 324 323 322 323 324 325 325 325 324 323
Wind_Speed
5 5 2 1 3 4 4 6 3 6 4 2 3 4 5 2 5 4 13 14 15 19 20 20 15 10 7 7 7 8 9 10 11 12 12 12 12 12 13 14 15 14 14 12 10 11 13 14 17
5 5 1 2 3 1 5 5 6 8 7 3 6 8 1 1 5 7 17 12 12 9 11 14 12 11 8 9 9 9 11 12 13 13 14 14 13 14 14 15 16 16 15 14 12 11 12 14 16
6 6 1 3 3 4 4 4 6 17 18 9 2 2 3 3 6 5 6 13 13 10 7 6 10 12 10 10 10 11 12 13 14 15 15 16 15 16 15 14 15 17 15 15 15 14 13 13 15
5 3 2 3 8 6 5 11 17 11 22 5 9 3 5 7 5 7 10 14 12 9 8 8 12 13 11 10 10 11 12 12 14 14 15 17 17 18 17 17 18 18 19 18 17 17 18 16 15
8 2 1 2 6 5 6 18 20 5 5 3 13 6 5 13 11 10 14 14 10 9 11 12 12 11 9 9 9 10 10 12 14 11 13 16 17 19 20 21 20 20 20 20 19 19 19 19 17
4 2 1 4 5 4 7 24 13 7 8 4 3 9 6 12 20 16 18 14 13 9 13 14 13 11 10 10 12 15 15 15 12 11 11 13 14 17 21 23 23 22 22 22 22 22 21 20 20
5 3 4 4 9 8 7 6 4 7 8 8 8 7 5 18 22 20 20 16 12 15 14 13 14 12 12 12 15 18 17 16 13 11 12 12 12 13 14 17 21 24 25 25 25 24 24 23 21
5 4 3 5 5 11 8 4 12 14 14 8 14 5 7 20 24 26 21 17 15 18 17 14 15 15 14 16 18 17 16 16 12 13 13 14 14 14 15 13 16 18 20 23 24 24 25 25 24
7 2 6 7 6 8 9 4 22 14 13 13 12 20 20 12 28 27 24 22 21 19 18 18 17 17 16 19 17 16 18 15 16 15 15 15 15 16 14 13 14 15 15 16 18 20 22 23 25
9 5 9 9 7 8 19 8 24 14 24 21 14 15 20 17 33 32 31 28 24 22 23 23 22 19 19 17 16 17 13 14 16 16 15 15 15 16 14 12 12 13 15 16 15 16 20 22 24
10 13 21 18 25 17 16 27 26 12 12 27 26 19 18 24 36 36 33 27 22 22 27 28 24 21 19 16 15 12 8 9 12 14 14 16 17 18 15 12 12 11 12 17 15 13 17 22 22
5 15 27 33 35 21 15 28 22 29 29 39 40 22 18 30 37 37 34 30 26 29 31 30 26 22 18 15 11 7 7 7 8 10 14 18 19 16 15 13 12 13 12 13 15 13 14 19 21
6 14 26 27 29 29 29 24 23 32 39 42 35 21 21 32 31 34 32 30 28 33 34 32 28 23 17 11 7 6 7 7 9 11 14 16 17 17 14 15 13 11 11 12 15 15 15 18 20
12 13 20 19 27 28 24 21 21 28 34 36 27 23 24 33 34 36 37 35 34 35 37 33 27 20 13 9 7 7 6 7 8 10 12 15 16 17 16 16 13 12 12 12 13 14 14 16 17
15 14 17 14 18 21 26 16 21 32 32 35 32 25 28 34 37 40 38 40 37 37 34 31 24 15 10 7 7 6 7 8 9 10 12 13 15 16 17 15 14 11 12 13 12 15 15 18 18
4 3 7 6 15 19 9 26 19 36 31 33 32 33 30 37 39 42 42 41 38 36 32 26 18 11 8 7 6 7 9 10 11 11 10 12 13 15 16 15 14 13 13 12 11 16 16 19 18
2 14 15 21 11 6 7 15 10 27 24 26 35 40 31 38 44 46 45 40 39 35 29 23 15 9 7 5 5 8 10 9 10 10 12 14 13 13 15 14 13 14 12 11 12 17 16 19 19
10 8 6 17 1 8 13 13 17 29 21 26 31 36 31 40 44 43 43 39 38 33 27 19 12 8 6 4 5 8 7 10 11 12 13 14 13 11 13 13 12 13 11 12 14 18 15 18 17
8 8 9 8 4 7 8 9 15 18 15 21 30 32 31 37 30 26 36 36 38 32 25 16 11 8 5 3 3 6 9 12 12 12 13 12 12 9 11 12 12 11 10 9 17 17 16 18 15
9 9 17 18 8 7 9 14 15 12 13 19 26 32 26 22 18 19 29 37 38 32 21 14 11 8 5 2 3 8 11 14 13 11 9 10 12 7 9 11 11 9 9 10 20 19 17 16 15
18 17 15 19 2 6 8 14 12 15 8 21 21 19 18 23 24 25 35 40 35 27 18 12 10 6 4 1 4 7 11 11 9 6 5 8 7 4 7 11 10 9 9 11 20 19 18 17 16
19 16 21 18 5 6 4 5 5 8 10 7 18 14 18 20 20 26 39 37 32 22 14 12 9 5 5 0 4 8 10 11 9 6 5 7 5 2 6 8 8 9 10 14 15 17 17 17 19
18 11 9 10 6 4 9 3 7 4 8 11 11 14 13 14 21 31 40 35 25 17 13 11 8 6 6 1 5 7 8 10 10 8 6 5 3 4 7 8 10 10 12 12 15 15 15 15 19
7 4 2 4 4 12 19 7 5 7 8 7 4 5 10 20 26 32 35 29 21 16 14 11 7 7 6 2 5 5 8 10 11 10 8 7 3 6 9 10 10 10 12 14 15 14 15 15 16
7 7 2 3 5 7 7 6 15 7 9 9 9 10 17 22 28 34 35 30 23 19 16 11 8 8 6 2 5 5 7 8 10 12 8 3 1 7 11 10 10 8 10 12 14 14 14 15 17
14 14 6 6 4 4 7 7 7 8 11 19 24 14 24 26 28 35 35 28 23 19 17 10 9 7 5 2 4 4 5 7 9 11 8 5 4 6 12 11 12 8 10 11 13 12 11 12 13
9 16 12 2 2 2 4 7 9 2 5 6 10 21 26 29 31 35 33 27 22 20 17 10 10 7 4 2 2 2 4 8 9 9 6 4 4 6 10 12 13 10 11 12 12 12 11 13 15
10 10 8 5 5 4 4 4 6 4 5 3 7 12 23 27 31 33 33 27 20 18 14 11 9 6 4 2 1 1 4 7 8 8 5 5 4 4 8 13 15 11 12 12 12 12 11 12 13
8 8 5 7 6 5 2 6 7 9 9 11 9 20 29 32 32 36 33 26 19 20 16 13 13 10 6 2 2 0 3 5 7 9 4 3 5 5 8 13 15 13 12 12 11 10 12 11 12
13 12 10 9 6 6 3 7 5 9 10 13 13 26 30 31 32 36 31 27 24 23 19 15 15 12 7 2 3 2 2 4 5 9 4 6 6 8 9 11 12 13 11 11 10 11 11 12 12
Wind_Direction
139 134 152 15 55 60 275 263 246 284 288 229 219 178 210 114 162 212 158 173 173 181 185 192 202 207 232 242 270 293 295 289 280 273 265 259 259 257 270 278 283 283 283 277 270 263 252 250 246
153 146 86 92 93 85 259 256 249 237 264 240 147 128 287 184 163 160 154 177 164 168 192 198 208 214 221 239 259 284 293 286 285 277 269 257 257 255 260 268 275 276 273 276 273 257 258 250 242
176 169 344 104 140 202 229 238 273 294 314 169 114 232 273 237 191 201 182 180 170 190 196 209 210 213 229 251 278 293 297 296 287 280 275 269 275 272 272 267 266 268 264 262 266 268 264 257 245
171 159 116 114 236 261 242 282 275 276 289 236 177 160 235 178 194 204 193 178 179 196 212 211 211 219 236 250 276 296 301 306 298 287 273 274 281 278 277 274 270 256 259 256 258 259 256 258 255
164 162 75 238 242 251 251 269 294 257 245 187 169 195 238 210 209 209 196 185 197 205 211 210 217 229 244 261 282 290 288 296 302 287 279 279 282 279 275 271 267 260 260 257 255 252 253 252 250
164 127 81 243 227 218 267 276 280 276 310 165 221 164 211 215 209 207 198 198 200 221 210 215 218 231 252 257 288 295 291 296 299 292 283 284 285 281 272 266 262 259 257 255 253 250 248 248 247
147 102 230 248 276 293 237 276 241 333 288 231 205 160 233 224 213 212 201 200 209 216 223 218 220 227 232 252 274 282 288 289 289 284 290 297 296 298 289 273 266 262 257 256 253 248 246 244 244
197 121 266 243 238 280 220 276 294 305 293 314 210 207 236 241 197 199 198 205 212 218 223 221 216 223 230 258 267 272 277 285 277 272 284 294 295 300 296 280 270 266 258 254 253 254 246 241 239
203 101 253 239 190 252 273 348 303 312 284 300 223 237 262 237 193 195 198 204 213 219 223 221 223 229 237 252 256 268 282 274 263 265 275 283 290 302 294 292 280 266 255 260 264 243 238 237 235
179 168 236 219 202 248 288 276 289 312 306 293 271 256 253 221 196 201 207 209 217 222 222 224 227 231 241 244 256 278 270 269 263 267 274 276 286 303 290 297 285 273 260 253 263 249 237 234 232
190 216 236 271 251 247 274 288 292 279 283 280 279 283 247 206 201 208 214 218 226 228 224 228 227 230 232 244 274 281 283 281 278 280 282 283 289 295 283 288 289 277 272 254 256 256 235 231 226
227 228 239 247 263 272 264 278 285 286 277 285 287 280 236 203 207 211 215 217 225 227 225 225 220 223 231 256 275 287 294 291 299 300 292 285 283 278 269 274 286 268 266 263 254 250 236 231 226
201 245 249 261 274 274 280 270 267 279 284 291 283 256 235 218 223 224 221 220 226 228 225 223 218 219 234 256 276 280 297 299 306 305 294 286 273 273 271 269 281 274 263 268 254 244 236 223 224
259 267 269 269 263 269 266 273 280 279 287 286 274 255 235 229 228 220 218 222 225 228 224 218 213 218 235 255 277 288 300 301 300 305 300 286 278 270 265 266 270 273 270 273 255 236 229 218 207
275 284 282 264 263 260 274 282 268 279 279 281 281 268 253 238 226 224 225 224 226 226 208 204 208 218 236 265 285 309 308 301 295 306 311 305 286 272 264 259 258 270 267 267 250 223 218 205 205
2 306 268 256 251 259 225 267 276 280 276 277 281 281 259 237 231 229 229 226 223 213 200 203 206 219 244 269 299 308 306 301 295 295 315 326 301 277 262 255 254 263 263 263 247 215 209 199 205
278 260 268 275 235 253 183 277 269 282 278 276 281 280 264 238 231 229 229 227 221 207 201 200 205 222 246 264 284 300 305 305 297 285 306 317 313 282 259 252 251 251 258 257 232 206 205 201 205
213 230 242 250 327 215 254 259 273 279 279 286 284 285 262 233 233 231 229 225 213 200 203 202 205 220 230 246 284 304 302 308 303 295 299 304 314 292 253 241 241 245 255 250 211 199 203 203 199
222 223 248 276 243 250 245 262 275 280 294 272 272 271 263 237 242 238 232 223 197 196 193 197 208 208 202 227 281 317 319 319 311 296 294 299 313 299 244 242 233 243 252 245 198 191 197 195 194
223 242 258 280 274 228 271 262 268 283 277 265 264 268 252 253 258 228 212 195 192 189 189 192 201 197 186 203 323 333 334 326 313 293 286 296 305 278 251 224 221 236 232 206 189 190 192 197 188
223 228 246 246 353 292 302 287 280 283 291 277 264 258 261 255 244 203 190 185 184 183 184 197 193 182 169 169 356 347 346 344 337 329 301 307 313 274 233 200 213 222 211 194 186 189 191 191 195
222 216 239 256 277 255 131 287 301 287 300 292 272 250 244 239 220 195 184 179 182 177 180 187 184 173 179 84 358 352 359 360 356 341 313 316 315 253 192 198 202 192 184 176 179 184 183 192 193
224 212 225 245 250 292 256 274 269 242 281 271 263 280 269 214 196 185 180 181 172 175 181 180 175 170 195 174 357 1 7 9 360 349 329 312 290 219 186 181 178 180 181 173 177 181 185 186 183
169 153 260 272 268 261 264 189 213 232 223 252 241 279 184 180 183 182 177 172 170 174 177 174 174 180 190 179 357 3 2 3 1 357 340 321 231 194 180 167 172 183 183 185 194 193 190 185 186
172 108 268 281 215 226 239 191 246 248 236 230 246 198 176 179 179 179 175 173 174 176 174 170 174 187 187 202 349 345 354 354 359 0 2 6 160 187 180 170 172 179 180 181 185 188 189 188 195
199 179 166 205 197 189 170 234 243 224 267 244 254 207 176 178 181 180 176 175 179 179 175 168 169 175 189 187 346 354 352 6 0 4 15 37 118 166 173 173 170 171 163 165 174 181 182 189 199
193 207 184 10 312 72 220 285 329 314 244 200 154 161 177 185 183 181 178 181 180 181 177 172 168 169 165 141 27 31 25 11 12 14 31 48 115 126 171 171 169 169 165 170 168 177 184 194 202
168 151 177 201 211 207 266 255 216 224 261 148 148 165 177 183 180 179 182 182 181 181 175 175 174 183 165 164 123 40 24 13 26 23 29 66 121 141 161 174 173 175 180 177 179 183 192 194 196
175 197 162 156 216 170 185 256 219 206 191 190 195 182 181 184 183 183 184 181 180 180 180 180 187 195 185 204 213 228 19 20 33 27 48 57 82 123 165 175 176 181 183 188 188 193 187 187 188
199 196 205 185 203 227 162 259 227 213 202 182 184 187 189 188 185 185 183 181 183 185 184 187 189 190 186 213 212 192 34 38 38 27 90 80 86 118 144 155 172 185 180 178 185 183 185 182 177